DW8816 Weather Reports


time (UTC)temp
C
wind
direction
speed
KPH
gust
KPH
rain 1hr
cm
rain 24hr
cm
rain mn
cm
humidity
%
barometer
mb
20260507182003 13 123 4.8 12.9 0.00 0.00 0.00 72 1014.4
20260507181004 13 127 4.8 16.1 0.00 0.00 0.00 71 1014.3
20260507174004 13 137 4.8 14.5 0.00 0.00 0.00 67 1014.2
20260507173003 13 131 4.8 14.5 0.00 0.00 0.00 68 1014.1
20260507172003 13 121 4.8 14.5 0.00 0.00 0.00 68 1014.1
20260507171004 14 123 3.2 14.5 0.00 0.00 0.00 67 1014.1
20260507170004 14 126 4.8 12.9 0.00 0.00 0.00 64 1014.1
20260507165004 13 124 6.4 16.1 0.00 0.00 0.00 64 1014.0
20260507164004 14 115 3.2 14.5 0.00 0.00 0.00 63 1014.1
20260507163004 14 144 3.2 11.3 0.00 0.00 0.00 62 1014.1
20260507162004 15 129 3.2 12.9 0.00 0.00 0.00 62 1014.1
20260507161005 15 123 3.2 12.9 0.00 0.00 0.00 63 1014.1
20260507160004 15 153 1.6 9.7 0.00 0.00 0.00 62 1014.1
20260507155004 15 111 3.2 9.7 0.00 0.00 0.00 61 1014.2
20260507154004 15 120 3.2 11.3 0.00 0.00 0.00 62 1014.2
20260507153004 15 123 3.2 12.9 0.00 0.00 0.00 61 1014.2
20260507152004 14 110 4.8 12.9 0.00 0.00 0.00 62 1014.2
20260507151003 14 119 3.2 14.5 0.00 0.00 0.00 62 1014.4
20260507145004 15 126 3.2 12.9 0.00 0.00 0.00 62 1014.3
20260507144004 14 122 3.2 8.0 0.00 0.00 0.00 62 1014.4
20260507143004 14 124 4.8 12.9 0.00 0.00 0.00 62 1014.4
20260507142004 14 104 4.8 14.5 0.00 0.00 0.00 62 1014.4
20260507140004 14 128 3.2 12.9 0.00 0.00 0.00 62 1014.6
20260507134004 14 128 4.8 19.3 0.00 0.00 0.00 64 1014.6
20260507133004 14 117 4.8 17.7 0.00 0.00 0.00 64 1014.7
20260507131004 13 96 3.2 9.7 0.00 0.00 0.00 66 1014.8
20260507130005 13 78 1.6 6.4 0.00 0.00 0.00 67 1014.9
20260507125005 13 86 3.2 6.4 0.00 0.00 0.00 67 1015.0
20260507123003 13 76 3.2 8.0 0.00 0.00 0.00 70 1015.0
20260507122004 12 39 3.2 6.4 0.00 0.00 0.00 69 1015.0
20260507121005 12 62 3.2 6.4 0.00 0.00 0.00 70 1015.1
20260507120004 12 62 3.2 6.4 0.00 0.00 0.00 69 1015.2
20260507114004 12 105 3.2 6.4 0.00 0.00 0.00 70 1015.1
20260507113004 12 333 3.2 9.7 0.00 0.00 0.00 70 1015.2
20260507112004 13 288 1.6 9.7 0.00 0.00 0.00 70 1015.3
20260507111004 12 320 1.6 4.8 0.00 0.00 0.00 70 1015.3
20260507110005 12 316 3.2 8.0 0.00 0.00 0.00 70 1015.4
20260507105003 12 15 4.8 8.0 0.00 0.00 0.00 72 1015.4
20260507103004 12 271 0.0 8.0 0.00 0.00 0.00 72 1015.5
20260507101004 12 205 1.6 4.8 0.00 0.00 0.00 67 1015.4
20260507100003 12 225 1.6 8.0 0.00 0.00 0.00 72 1015.4
20260507094003 12 137 3.2 8.0 0.00 0.00 0.00 72 1015.5
20260507093004 12 127 4.8 12.9 0.00 0.00 0.00 69 1015.4
20260507092004 12 136 3.2 11.3 0.00 0.00 0.00 73 1015.4
20260507091005 11 117 1.6 9.7 0.00 0.00 0.00 77 1015.5
20260507090005 11 190 1.6 8.0 0.00 0.00 0.00 78 1015.4
20260507085003 11 168 0.0 6.4 0.00 0.00 0.00 79 1015.4
20260507084004 11 168 0.0 3.2 0.00 0.00 0.00 79 1015.4
20260507083004 11 168 0.0 6.4 0.00 0.00 0.00 80 1015.4
20260507082004 10 0 0.0 6.4 0.00 0.00 0.00 81 1015.5
20260507081005 10 0 0.0 3.2 0.00 0.00 0.00 81 1015.5
20260507080004 11 0 0.0 6.4 0.00 0.00 0.00 80 1015.4
20260507075006 11 166 1.6 4.8 0.00 0.00 0.00 80 1015.3
20260507074004 11 165 1.6 8.0 0.00 0.00 0.00 80 1015.4
20260507073003 11 139 1.6 8.0 0.00 0.00 0.00 82 1015.3
20260507072003 10 123 3.2 8.0 0.00 0.00 0.00 82 1015.3
20260507071004 10 114 1.6 9.7 0.00 0.00 0.00 83 1015.3
20260507070008 10 117 3.2 11.3 0.00 0.00 0.00 86 1015.3
20260507065003 10 84 1.6 6.4 0.00 0.00 0.00 89 1015.3
20260507064005 8 0 0.0 1.6 0.00 0.00 0.00 93 1015.3
20260507063005 8 0 0.0 1.6 0.00 0.00 0.00 92 1015.2
20260507061003 7 72 0.0 3.2 0.00 0.00 0.00 92 1015.2
20260507060004 7 72 1.6 4.8 0.00 0.00 0.00 92 1015.1
20260507055004 7 0 0.0 3.2 0.00 0.00 0.00 92 1015.0
20260507053004 7 0 0.0 3.2 0.00 0.00 0.00 91 1014.8
20260507052004 7 72 0.0 3.2 0.00 0.00 0.00 92 1014.8
20260507051004 7 72 1.6 4.8 0.00 0.00 0.00 91 1014.8
20260507050003 7 0 0.0 4.8 0.00 0.00 0.00 91 1014.7
20260507045003 7 0 0.0 4.8 0.00 0.00 0.00 91 1014.7
20260507044004 7 72 0.0 4.8 0.00 0.00 0.00 91 1014.6
20260507043004 7 72 3.2 4.8 0.00 0.00 0.00 92 1014.7
20260507042005 7 56 3.2 8.0 0.00 0.00 0.00 92 1014.6
20260507040004 7 349 0.0 4.8 0.00 0.00 0.00 92 1014.6
20260507035003 7 349 0.0 3.2 0.00 0.00 0.00 92 1014.6
20260507034003 7 350 1.6 3.2 0.00 0.00 0.00 92 1014.5
20260507033004 7 349 1.6 6.4 0.00 0.00 0.00 92 1014.5
20260507031004 7 346 1.6 4.8 0.00 0.00 0.00 92 1014.5
20260507030003 6 346 1.6 4.8 0.00 0.00 0.00 92 1014.6
20260507025004 6 346 0.0 4.8 0.00 0.00 0.00 92 1014.6
20260507024005 6 346 1.6 6.4 0.00 0.00 0.00 92 1014.6
20260507023005 6 354 3.2 6.4 0.00 0.00 0.00 92 1014.6
20260507022004 6 1 3.2 6.4 0.00 0.00 0.00 91 1014.5
20260507021004 7 5 1.6 6.4 0.00 0.00 0.00 91 1014.5
20260507020004 7 13 0.0 6.4 0.00 0.00 0.00 91 1014.4
20260507015004 7 25 0.0 3.2 0.00 0.00 0.00 91 1014.3
20260507014005 7 25 1.6 4.8 0.00 0.00 0.00 91 1014.3
20260507013004 7 25 0.0 4.8 0.00 0.00 0.00 91 1014.3
20260507012004 7 25 1.6 3.2 0.00 0.00 0.00 91 1014.3
20260507011004 7 25 1.6 4.8 0.00 0.00 0.00 91 1014.3
20260507010004 7 25 1.6 6.4 0.00 0.00 0.00 91 1014.2
20260507003004 7 15 1.6 6.4 0.00 0.00 0.00 91 1014.4
20260507002004 7 13 1.6 4.8 0.00 0.00 0.00 91 1014.5
20260507001005 7 15 1.6 6.4 0.00 0.00 0.00 91 1014.5
20260507000005 7 355 1.6 8.0 0.00 0.00 0.00 91 1014.5
20260506235005 7 354 1.6 6.4 0.00 0.00 0.00 90 1014.4
20260506234004 7 355 1.6 6.4 0.00 0.00 0.00 90 1014.3
20260506233004 7 355 1.6 4.8 0.00 0.00 0.00 89 1014.2
20260506230004 8 354 3.2 8.0 0.00 0.00 0.00 88 1014.2
20260506225004 8 5 1.6 6.4 0.00 0.00 0.00 88 1014.1
20260506224004 8 5 3.2 8.0 0.00 0.00 0.00 87 1014.2
20260506223005 8 18 3.2 9.7 0.00 0.00 0.00 87 1014.1
20260506222003 8 356 3.2 6.4 0.00 0.00 0.00 86 1014.1
20260506220004 8 356 3.2 8.0 0.00 0.00 0.00 85 1014.1
20260506215004 8 30 3.2 8.0 0.00 0.00 0.00 84 1014.1
20260506214004 8 45 4.8 12.9 0.00 0.00 0.00 84 1014.0
20260506213004 8 35 3.2 14.5 0.00 0.00 0.00 83 1014.0
20260506212003 8 31 3.2 9.7 0.00 0.00 0.00 83 1014.0
20260506211004 9 35 3.2 12.9 0.00 0.00 0.00 83 1014.0
20260506205003 9 13 4.8 12.9 0.00 0.00 0.00 82 1013.9
20260506203005 9 32 4.8 11.3 0.00 0.00 0.00 81 1013.7
20260506201004 10 33 4.8 16.1 0.00 0.00 0.00 79 1013.6
20260506200004 10 32 3.2 14.5 0.00 0.00 0.00 79 1013.5
20260506195005 10 36 3.2 12.9 0.00 0.00 0.00 79 1013.4
20260506194005 10 18 4.8 14.5 0.00 0.00 0.00 77 1013.3
20260506193004 10 4 4.8 16.1 0.00 0.00 0.00 76 1013.2
20260506192005 11 354 4.8 12.9 0.00 0.00 0.00 75 1013.1
20260506191004 11 5 4.8 14.5 0.00 0.00 0.00 73 1013.0
20260506190003 11 358 3.2 12.9 0.00 0.00 0.00 72 1012.9
20260506185002 11 345 3.2 8.0 0.00 0.00 0.00 70 1012.9
20260506184003 11 12 6.4 14.5 0.00 0.00 0.00 69 1012.7
20260506183003 11 33 6.4 14.5 0.00 0.00 0.00 69 1012.7